Date String (YYYY-MM-DD hh:mm:ss) UTC,Instrument flags,Ambient pressure (hPa),Sample flow (lpm),Bypass flow (lpm),Sample temperature (°C),Ambient temperature (°C),ASC tube jacket temperature (°C),LED temperature (°C),Box temperature (°C),Sample RH (%),Span deviation,Mass concentration (μg/m³),Mass concentration (μg/m³),Mass concentration (μg/m³)
DateTimeUTC,F1_M11,P_M11,Q1_M11,Q2_M11,T1_M11,T2_M11,T3_M11,T4_M11,T5_M11,U1_M11,ZSPAN_M11,X2_M11,X0_M11,X1_M11
2022-10-23 23:00:00,,0807.6,5.00,0.00,29.6,28.1,00.0,38.5,31.5,07.4,0000.0,0001.72,0010.35,0000.58
2022-10-23 23:01:00,,0807.6,4.99,0.00,29.6,28.1,00.0,38.5,31.4,07.5,0000.0,0001.75,0009.11,0000.59
2022-10-23 23:02:00,,0807.7,5.00,0.00,29.6,28.1,00.0,38.5,31.4,07.5,0000.0,0001.78,0009.03,0000.59
2022-10-23 23:03:00,,0807.7,5.00,0.00,29.6,28.1,00.0,38.5,31.4,07.5,0000.0,0001.77,0009.03,0000.59
2022-10-23 23:04:00,,0807.7,4.99,0.00,29.6,28.1,00.0,38.5,31.5,07.6,0000.0,0001.66,0008.81,0000.57
2022-10-23 23:05:00,,0807.7,5.00,0.00,29.6,28.1,00.0,38.5,31.4,07.5,0000.0,0001.63,0008.49,0000.57
2022-10-23 23:06:00,,0807.7,5.01,0.00,29.6,28.0,00.0,38.5,31.4,07.4,0000.0,0001.55,0006.41,0000.56
2022-10-23 23:07:00,,0807.7,5.00,0.00,29.6,28.0,00.0,38.5,31.4,07.4,0000.0,0001.44,0005.21,0000.55
2022-10-23 23:08:00,,0807.6,5.00,0.00,29.6,28.0,00.0,38.5,31.4,07.4,0000.0,0001.39,0005.04,0000.54
2022-10-23 23:09:00,,0807.6,5.00,0.00,29.6,28.0,00.0,38.5,31.3,07.3,0000.0,0001.36,0005.33,0000.53
2022-10-23 23:10:00,,0807.7,5.00,0.00,29.6,28.0,00.0,38.5,31.3,07.3,0000.0,0001.27,0005.62,0000.51
2022-10-23 23:11:00,,0807.6,5.01,0.00,29.5,27.9,00.0,38.5,31.3,07.3,0000.0,0001.24,0005.90,0000.49
2022-10-23 23:12:00,,0807.6,4.99,0.00,29.5,27.9,00.0,38.5,31.3,07.3,0000.0,0001.18,0005.94,0000.47
2022-10-23 23:13:00,,0807.7,5.01,0.00,29.5,27.9,00.0,38.5,31.3,07.4,0000.0,0001.11,0006.01,0000.45
2022-10-23 23:14:00,,0807.8,5.00,0.00,29.5,27.9,00.0,38.5,31.3,07.3,0000.0,0001.06,0005.72,0000.43
2022-10-23 23:15:00,,0807.8,4.99,0.00,29.5,27.9,00.0,38.5,31.3,07.4,0000.0,0001.07,0005.22,0000.44
2022-10-23 23:16:00,,0807.9,5.00,0.00,29.5,27.9,00.0,38.4,31.3,07.3,0000.0,0001.07,0004.98,0000.43
2022-10-23 23:17:00,,0807.9,5.00,0.00,29.5,27.9,00.0,38.4,31.3,07.4,0000.0,0001.08,0005.23,0000.42
2022-10-23 23:18:00,,0807.9,4.99,0.00,29.5,27.9,00.0,38.4,31.2,07.4,0000.0,0001.07,0005.18,0000.41
2022-10-23 23:19:00,,0808.0,5.01,0.00,29.5,27.9,00.0,38.4,31.3,07.4,0000.0,0001.05,0005.61,0000.40
2022-10-23 23:20:00,,0808.1,5.00,0.00,29.5,27.9,00.0,38.4,31.2,07.5,0000.0,0000.99,0005.98,0000.39
2022-10-23 23:21:00,,0808.0,5.00,0.00,29.5,27.9,00.0,38.4,31.2,07.6,0000.0,0000.96,0006.04,0000.39
2022-10-23 23:22:00,,0808.0,5.00,0.00,29.5,27.9,00.0,38.4,31.3,07.6,0000.0,0000.93,0005.53,0000.39
2022-10-23 23:23:00,,0808.1,4.99,0.00,29.5,27.9,00.0,38.4,31.2,07.3,0000.0,0000.90,0005.26,0000.39
2022-10-23 23:24:00,,0808.2,5.02,0.00,29.5,27.9,00.0,38.4,31.2,07.4,0000.0,0000.87,0004.83,0000.39
2022-10-23 23:25:00,,0808.3,5.00,0.00,29.5,27.9,00.0,38.4,31.3,07.5,0000.0,0000.87,0004.84,0000.39
2022-10-23 23:26:00,,0808.4,4.99,0.00,29.5,27.9,00.0,38.4,31.3,07.5,0000.0,0000.84,0005.59,0000.37
2022-10-23 23:27:00,,0808.5,4.99,0.00,29.5,27.9,00.0,38.4,31.2,07.5,0000.0,0000.83,0005.77,0000.36
2022-10-23 23:28:00,,0808.6,4.99,0.00,29.5,27.9,00.0,38.4,31.2,07.5,0000.0,0000.84,0005.61,0000.36
2022-10-23 23:29:00,,0808.7,4.99,0.00,29.5,27.9,00.0,38.4,31.3,07.5,0000.0,0000.84,0005.78,0000.36
2022-10-23 23:30:00,,0808.9,5.00,0.00,29.5,27.9,00.0,38.4,31.3,07.4,0000.0,0000.83,0004.62,0000.35
2022-10-23 23:31:00,,0809.0,5.01,0.00,29.5,27.9,00.0,38.4,31.4,07.4,0000.0,0000.84,0003.84,0000.35
2022-10-23 23:32:00,,0809.0,4.99,0.00,29.5,28.0,00.0,38.4,31.4,07.5,0000.0,0000.86,0003.27,0000.34
2022-10-23 23:33:00,,0809.1,5.01,0.00,29.6,28.0,00.0,38.4,31.3,07.5,0000.0,0000.86,0003.14,0000.34
2022-10-23 23:34:00,,0809.1,5.02,0.00,29.6,28.0,00.0,38.4,31.4,07.5,0000.0,0000.83,0003.07,0000.34
2022-10-23 23:35:00,,0809.1,4.99,0.00,29.6,28.0,00.0,38.4,31.3,07.3,0000.0,0000.86,0003.14,0000.35
2022-10-23 23:36:00,,0809.1,4.99,0.00,29.6,28.0,00.0,38.4,31.3,07.3,0000.0,0000.88,0003.21,0000.35
2022-10-23 23:37:00,,0809.1,4.99,0.00,29.6,28.0,00.0,38.4,31.3,07.2,0000.0,0000.87,0002.53,0000.35
2022-10-23 23:38:00,,0809.1,4.99,0.00,29.6,28.0,00.0,38.4,31.4,07.1,0000.0,0000.86,0002.43,0000.36
2022-10-23 23:39:00,,0809.1,5.00,0.00,29.6,28.0,00.0,38.4,31.3,07.1,0000.0,0000.81,0002.25,0000.37
2022-10-23 23:40:00,,0809.1,5.02,0.00,29.5,27.9,00.0,38.4,31.2,07.0,0000.0,0000.82,0002.11,0000.37
2022-10-23 23:41:00,,0809.2,5.00,0.00,29.6,27.9,00.0,38.4,31.3,07.0,0000.0,0000.86,0002.14,0000.37
2022-10-23 23:42:00,,0809.2,4.99,0.00,29.6,27.9,00.0,38.4,31.3,07.0,0000.0,0000.83,0002.10,0000.38
2022-10-23 23:43:00,,0809.2,5.00,0.00,29.6,27.9,00.0,38.4,31.3,07.1,0000.0,0000.78,0002.04,0000.37
2022-10-23 23:44:00,,0809.3,5.00,0.00,29.6,27.9,00.0,38.4,31.3,07.1,0000.0,0000.76,0001.92,0000.38
2022-10-23 23:45:00,,0809.2,5.00,0.00,29.6,28.0,00.0,38.4,31.4,07.1,0000.0,0000.76,0002.02,0000.38
2022-10-23 23:46:00,,0809.3,5.01,0.00,29.6,28.0,00.0,38.4,31.4,07.1,0000.0,0000.72,0001.90,0000.36
2022-10-23 23:47:00,,0809.3,5.01,0.00,29.6,28.0,00.0,38.4,31.3,07.0,0000.0,0000.71,0001.89,0000.36
2022-10-23 23:48:00,,0809.3,5.00,0.00,29.6,27.9,00.0,38.4,31.3,06.9,0000.0,0000.74,0001.98,0000.36
2022-10-23 23:49:00,,0809.3,5.01,0.00,29.6,28.0,00.0,38.4,31.3,06.9,0000.0,0000.73,0001.83,0000.35
2022-10-23 23:50:00,,0809.4,5.00,0.00,29.6,28.0,00.0,38.4,31.3,07.0,0000.0,0000.74,0001.90,0000.34
2022-10-23 23:51:00,,0809.4,5.00,0.00,29.6,28.0,00.0,38.4,31.4,07.0,0000.0,0000.76,0001.96,0000.34
2022-10-23 23:52:00,,0809.4,5.00,0.00,29.6,28.0,00.0,38.4,31.4,06.9,0000.0,0000.75,0002.01,0000.33
2022-10-23 23:53:00,,0809.4,4.99,0.00,29.6,28.0,00.0,38.4,31.4,06.7,0000.0,0000.72,0002.30,0000.33
2022-10-23 23:54:00,,0809.6,4.99,0.00,29.6,28.0,00.0,38.4,31.4,06.7,0000.0,0000.74,0002.33,0000.33
2022-10-23 23:55:00,,0809.7,5.00,0.00,29.6,28.1,00.0,38.4,31.5,06.7,0000.0,0000.76,0002.38,0000.33
2022-10-23 23:56:00,,0809.9,5.00,0.00,29.6,28.1,00.0,38.4,31.5,06.7,0000.0,0000.75,0002.62,0000.32
2022-10-23 23:57:00,,0809.9,4.99,0.00,29.6,28.1,00.0,38.4,31.5,07.8,0000.0,0000.82,0002.86,0000.33
2022-10-23 23:58:00,,0809.9,5.02,0.00,29.6,28.0,00.0,38.4,31.5,10.0,0000.0,0001.13,0003.79,0000.38
2022-10-23 23:59:00,,0809.9,4.99,0.00,29.6,27.9,00.0,38.4,31.4,10.8,0000.0,0001.48,0006.27,0000.46
